period_start,C,m1,H,J0,J1,J2,J3,J4,J5,JA,JB,JC,JD,JJ,JK,JN,#
2016-04-18 00:03:15,0.01,4.77,0.00,15.97,20.56,24.05,14.95,51.97,1012.22,2059.51,1996.93,2128.01,2401.56,599.95,607.94,48.10,0000 0000 0000 0000 000000
2016-04-18 00:08:16,0.05,4.78,0.00,15.98,20.57,24.06,14.95,52.06,1012.20,2059.43,1996.13,2127.57,2400.90,599.76,607.54,48.15,0000 0000 0000 0000 000000
2016-04-18 00:13:17,0.08,4.78,0.00,15.98,20.57,24.09,14.97,51.88,1012.18,2059.09,1994.91,2126.68,2399.95,600.27,608.04,48.20,0000 0000 0000 0000 000000
2016-04-18 00:18:18,0.12,4.79,0.00,16.01,20.59,24.09,14.92,51.89,1012.12,2059.06,1993.55,2125.72,2398.86,599.79,607.51,48.25,0000 0000 0000 0000 000000
2016-04-18 00:23:20,0.10,4.79,0.00,16.05,20.59,24.12,14.90,51.88,1012.06,2059.05,1992.21,2124.86,2397.82,600.02,607.65,48.30,0000 0000 0000 0000 000000
2016-04-18 00:28:21,0.13,4.80,0.00,16.04,20.60,24.11,14.85,51.74,1012.06,2059.04,1990.87,2123.91,2396.78,599.72,607.42,48.35,0000 0000 0000 0000 000000
2016-04-18 00:33:22,0.12,4.81,0.00,16.07,20.62,24.13,14.87,51.79,1011.84,2059.02,1989.38,2122.91,2395.67,599.90,607.48,48.40,0000 0000 0000 0000 000000
2016-04-18 00:38:23,0.08,4.81,0.00,16.11,20.63,24.13,14.89,51.89,1011.75,2059.02,1988.13,2122.05,2394.99,599.55,606.88,48.45,0000 0000 0000 0000 000000
2016-04-18 00:43:25,0.02,4.81,0.00,16.12,20.64,24.14,14.93,51.89,1011.74,2059.00,1987.98,2121.98,2394.31,599.98,607.36,48.50,0000 0000 0000 0000 000000
2016-04-18 00:48:26,0.07,4.81,0.00,16.14,20.66,24.18,14.90,51.92,1011.73,2059.00,1987.32,2121.41,2394.00,599.88,607.12,48.55,0000 0000 0000 0000 000000
2016-04-18 00:53:28,0.02,4.82,0.00,16.17,20.67,24.18,14.93,51.91,1011.73,2059.00,1986.97,2121.01,2393.75,599.87,607.10,48.60,0000 0000 0000 0000 000000
2016-04-18 00:58:29,0.08,4.82,0.00,16.18,20.69,24.21,15.06,51.92,1011.73,2059.00,1986.10,2120.60,2393.00,600.33,607.46,48.65,0000 0000 0000 0000 000000
2016-04-18 01:03:30,0.08,4.83,0.00,16.21,20.69,24.22,14.96,51.81,1011.73,2059.00,1985.02,2119.90,2392.16,599.99,607.16,48.70,0000 0000 0000 0000 000000
2016-04-18 01:08:32,0.11,4.83,0.00,16.22,20.70,24.25,14.86,51.77,1011.73,2059.00,1983.86,2119.06,2391.27,599.77,606.89,48.76,0000 0000 0000 0000 000000
2016-04-18 01:13:33,0.08,4.84,0.00,16.25,20.72,24.27,14.92,51.90,1011.73,2058.99,1983.02,2118.39,2390.57,600.12,607.12,48.81,0000 0000 0000 0000 000000
2016-04-18 01:18:34,0.06,4.84,0.00,16.27,20.73,24.28,14.93,52.06,1011.74,2058.99,1982.22,2117.87,2389.88,599.64,606.60,48.86,0000 0000 0000 0000 000000
2016-04-18 01:23:36,0.07,4.84,0.00,16.28,20.74,24.30,14.91,51.87,1011.73,2058.98,1981.73,2117.15,2389.10,600.31,607.29,48.91,0000 0000 0000 0000 000000
2016-04-18 01:28:37,0.02,4.84,0.00,16.30,20.77,24.33,14.87,51.94,1011.74,2058.98,1981.02,2116.99,2388.93,600.17,607.14,48.96,0000 0000 0000 0000 000000
2016-04-18 01:33:38,0.08,4.85,0.00,16.33,20.78,24.35,15.03,52.04,1011.75,2058.93,1980.50,2116.47,2388.16,600.02,606.94,49.01,0000 0000 0000 0000 000000
2016-04-18 01:38:39,0.01,4.85,0.00,16.34,20.79,24.35,14.96,51.98,1011.73,2058.82,1979.98,2116.03,2387.94,600.43,607.25,49.06,0000 0000 0000 0000 000000
2016-04-18 01:43:40,0.07,4.85,0.00,16.37,20.81,24.38,14.88,51.83,1011.73,2058.75,1979.24,2115.74,2387.18,599.99,606.72,49.11,0000 0000 0000 0000 000000
2016-04-18 01:48:42,0.02,4.85,0.00,16.41,20.82,24.39,14.89,51.85,1011.74,2058.41,1978.68,2115.04,2386.88,599.84,606.50,49.16,0000 0000 0000 0000 000000
2016-04-18 01:53:43,0.00,4.85,0.00,16.43,20.83,24.40,14.85,51.66,1011.75,2058.21,1978.02,2114.96,2386.12,599.57,606.23,49.21,0000 0000 0000 0000 000000
2016-04-18 01:58:44,0.08,4.86,0.00,16.45,20.84,24.46,14.90,51.70,1011.76,2058.16,1977.45,2114.26,2385.88,599.95,606.54,49.26,0000 0000 0000 0000 000000
2016-04-18 02:03:46,0.02,4.86,0.00,16.45,20.85,24.45,15.00,51.79,1011.74,2058.10,1976.98,2114.00,2385.11,600.08,606.67,49.31,0000 0000 0000 0000 000000
2016-04-18 02:08:47,0.05,4.86,0.00,16.48,20.87,24.48,14.91,51.67,1011.74,2058.06,1976.23,2113.69,2384.96,599.94,606.42,49.36,0000 0000 0000 0000 000000
2016-04-18 02:13:49,0.04,4.86,0.00,16.49,20.87,24.48,14.89,51.73,1011.75,2058.03,1975.93,2113.04,2384.23,599.98,606.49,49.41,0000 0000 0000 0000 000000
2016-04-18 02:18:50,0.03,4.87,0.00,16.52,20.89,24.52,14.94,51.79,1011.77,2058.04,1975.10,2112.95,2383.98,600.41,606.87,49.46,0000 0000 0000 0000 000000
2016-04-18 02:23:52,0.10,4.87,0.00,16.55,20.89,24.55,14.88,51.71,1011.77,2058.02,1974.46,2112.24,2383.28,600.01,606.49,49.51,0000 0000 0000 0000 000000
2016-04-18 02:28:53,0.04,4.87,0.00,16.58,20.91,24.52,14.83,51.56,1011.80,2058.00,1973.95,2111.78,2382.65,599.80,606.15,49.56,0000 0000 0000 0000 000000
2016-04-18 02:33:54,0.07,4.88,0.00,16.59,20.92,24.56,14.88,51.58,1011.76,2058.00,1973.18,2111.08,2382.03,599.79,606.10,49.62,0000 0000 0000 0000 000000
2016-04-18 02:38:55,0.02,4.88,0.00,16.60,20.93,24.61,14.89,51.52,1011.74,2058.00,1972.82,2110.99,2381.75,600.06,606.37,49.67,0000 0000 0000 0000 000000
2016-04-18 02:43:57,0.05,4.88,0.00,16.63,20.94,24.61,14.92,51.77,1011.73,2058.00,1972.06,2110.81,2381.03,600.27,606.46,49.72,0000 0000 0000 0000 000000
2016-04-18 02:48:58,0.05,4.88,0.00,16.66,20.96,24.62,14.87,51.48,1011.74,2058.00,1971.76,2110.08,2380.80,600.29,606.57,49.77,0000 0000 0000 0000 000000
2016-04-18 02:53:59,0.04,4.89,0.00,16.67,20.97,24.62,14.91,51.48,1011.74,2057.99,1971.03,2109.99,2380.06,600.12,606.26,49.82,0000 0000 0000 0000 000000
2016-04-18 02:59:00,0.06,4.89,0.00,16.68,20.99,24.63,14.88,51.27,1011.75,2057.98,1970.47,2109.48,2379.93,600.20,606.29,49.87,0000 0000 0000 0000 000000
2016-04-18 03:04:02,0.04,4.89,0.00,16.72,20.99,24.66,14.87,51.49,1011.76,2057.99,1969.99,2109.01,2379.14,599.87,605.97,49.92,0000 0000 0000 0000 000000
2016-04-18 03:09:03,0.03,4.89,0.00,16.74,21.02,24.67,14.78,51.27,1011.77,2057.97,1969.35,2108.95,2378.99,599.84,605.99,49.97,0000 0000 0000 0000 000000
2016-04-18 03:14:04,0.07,4.90,0.00,16.76,21.03,24.73,14.91,51.56,1011.77,2057.98,1968.97,2108.16,2378.27,600.06,606.02,50.02,0000 0000 0000 0000 000000
2016-04-18 03:19:06,0.03,4.90,0.00,16.77,21.04,24.72,14.90,51.58,1011.76,2057.97,1968.17,2107.98,2377.99,600.13,606.10,50.07,0000 0000 0000 0000 000000
2016-04-18 03:24:07,0.06,4.90,0.00,16.81,21.06,24.73,14.84,51.58,1011.79,2057.86,1967.84,2107.36,2377.25,600.00,605.87,50.12,0000 0000 0000 0000 000000
2016-04-18 03:29:08,0.02,4.90,0.00,16.83,21.07,24.75,14.83,51.68,1011.78,2057.83,1967.10,2107.01,2377.00,600.18,606.01,50.17,0000 0000 0000 0000 000000
2016-04-18 03:34:09,0.03,4.91,0.00,16.86,21.09,24.76,14.84,51.71,1011.81,2057.67,1966.74,2106.81,2376.52,599.82,605.56,50.22,0000 0000 0000 0000 000000
2016-04-18 03:39:11,0.03,4.91,0.00,16.87,21.11,24.80,14.90,51.67,1011.78,2057.36,1966.04,2106.05,2376.01,600.11,605.82,50.27,0000 0000 0000 0000 000000
2016-04-18 03:44:12,0.03,4.91,0.00,16.90,21.13,24.80,14.90,51.72,1011.76,2057.20,1965.66,2105.98,2375.58,600.08,605.70,50.32,0000 0000 0000 0000 000000
2016-04-18 03:49:13,0.05,4.91,0.00,16.93,21.15,24.80,14.88,51.68,1011.77,2057.08,1965.02,2105.36,2375.02,599.94,605.61,50.37,0000 0000 0000 0000 000000
2016-04-18 03:54:15,0.05,4.91,0.00,16.96,21.17,24.84,14.85,51.58,1011.81,2057.01,1964.52,2105.01,2374.50,600.12,605.70,50.42,0000 0000 0000 0000 000000
2016-04-18 03:59:16,0.04,4.91,0.00,16.97,21.19,24.86,14.93,51.70,1011.77,2057.00,1964.01,2104.64,2374.00,600.20,605.75,50.47,0000 0000 0000 0000 000000
2016-04-18 04:04:17,0.07,4.92,0.00,16.99,21.22,24.91,14.80,51.62,1011.79,2057.00,1963.33,2104.02,2373.41,599.86,605.41,50.52,0000 0000 0000 0000 000000
2016-04-18 04:09:18,0.02,4.92,0.00,17.03,21.24,24.90,14.88,51.59,1011.93,2057.00,1962.99,2103.84,2373.01,600.16,605.63,50.58,0000 0000 0000 0000 000000
2016-04-18 04:14:19,0.09,4.92,0.00,17.04,21.27,24.92,14.87,51.61,1011.90,2057.00,1962.21,2103.10,2372.41,600.27,605.72,50.63,0000 0000 0000 0000 000000
2016-04-18 04:19:21,0.01,4.93,0.00,17.07,21.29,24.94,14.84,51.66,1011.87,2056.98,1961.90,2102.97,2372.00,599.79,605.27,50.68,0000 0000 0000 0000 000000
2016-04-18 04:24:22,0.09,4.93,0.00,17.08,21.31,24.96,14.84,51.45,1011.79,2056.97,1961.11,2102.29,2371.46,599.94,605.22,50.73,0000 0000 0000 0000 000000
2016-04-18 04:29:24,0.01,4.93,0.00,17.12,21.33,24.97,14.82,51.47,1011.79,2056.95,1960.87,2102.00,2371.01,599.96,605.17,50.78,0000 0000 0000 0000 000000
2016-04-18 04:34:25,0.04,4.93,0.00,17.14,21.36,24.97,14.79,51.35,1011.78,2056.84,1960.12,2101.81,2370.64,599.96,605.14,50.83,0000 0000 0000 0000 000000
2016-04-18 04:39:26,0.02,4.94,0.00,17.16,21.38,25.00,14.82,51.43,1011.80,2056.58,1959.88,2101.08,2370.02,599.90,604.98,50.88,0000 0000 0000 0000 000000
2016-04-18 04:44:27,-0.00,4.94,0.00,17.19,21.39,25.03,14.84,51.36,1011.85,2056.22,1959.12,2100.99,2369.76,599.99,605.06,50.93,0000 0000 0000 0000 000000
2016-04-18 04:49:29,0.06,4.94,0.00,17.19,21.42,25.05,14.92,51.60,1011.94,2056.08,1958.82,2100.38,2369.05,600.00,605.16,50.98,0000 0000 0000 0000 000000
2016-04-18 04:54:30,0.04,4.94,0.00,17.23,21.44,25.08,14.81,51.49,1011.89,2056.03,1958.07,2100.00,2368.79,599.79,604.84,51.03,0000 0000 0000 0000 000000
2016-04-18 04:59:31,0.04,4.94,0.00,17.26,21.45,25.13,14.85,51.29,1011.97,2056.00,1957.70,2099.80,2368.06,599.82,604.89,51.08,0000 0000 0000 0000 000000
2016-04-18 05:04:32,0.05,4.94,0.00,17.27,21.47,25.13,14.85,51.33,1012.14,2056.00,1957.02,2099.09,2367.87,600.18,605.28,51.13,0000 0000 0000 0000 000000
2016-04-18 05:09:34,0.04,4.95,0.00,17.27,21.49,25.13,14.77,51.39,1012.19,2056.00,1956.59,2098.98,2367.11,599.39,604.51,51.18,0000 0000 0000 0000 000000
2016-04-18 05:14:35,0.04,4.95,0.00,17.29,21.51,25.15,14.88,51.41,1012.19,2056.00,1956.02,2098.46,2367.00,600.06,605.16,51.23,0000 0000 0000 0000 000000
2016-04-18 05:19:37,0.05,4.95,0.00,17.35,21.53,25.16,14.84,51.48,1012.22,2056.00,1955.57,2098.02,2366.74,600.09,605.09,51.28,0000 0000 0000 0000 000000
2016-04-18 05:24:38,0.02,4.95,0.00,17.36,21.54,25.17,14.94,51.64,1012.22,2055.98,1955.01,2097.95,2366.04,600.24,605.25,51.33,0000 0000 0000 0000 000000
2016-04-18 05:29:39,0.07,4.96,0.00,17.37,21.57,25.22,14.87,51.52,1012.22,2055.97,1954.49,2097.19,2365.80,600.48,605.51,51.38,0000 0000 0000 0000 000000
2016-04-18 05:34:41,0.03,4.96,0.00,17.38,21.59,25.21,14.81,51.32,1012.22,2055.98,1954.00,2097.00,2365.05,600.12,605.01,51.43,0000 0000 0000 0000 000000
2016-04-18 05:39:42,0.04,4.96,0.00,17.38,21.61,25.17,14.89,51.61,1012.22,2055.85,1953.41,2096.71,2364.96,599.87,604.92,51.49,0000 0000 0000 0000 000000
2016-04-18 05:44:44,0.04,4.96,0.00,17.42,21.62,25.16,14.82,51.48,1012.22,2055.73,1952.96,2096.04,2364.26,600.13,605.10,51.54,0000 0000 0000 0000 000000
2016-04-18 05:49:45,-0.01,4.96,0.00,17.28,21.64,25.27,14.89,51.30,1012.22,2055.33,1952.07,2095.84,2363.87,600.37,605.46,51.59,0000 0000 0000 0000 000000
2016-04-18 05:54:46,0.12,4.97,0.00,17.05,21.63,25.25,14.84,51.33,1012.22,2055.19,1950.69,2095.05,2363.05,599.90,605.52,51.64,0000 0000 0000 0000 000000
2016-04-18 05:59:48,0.12,4.97,0.00,16.89,21.62,25.28,14.95,51.24,1012.22,2055.20,1949.34,2094.35,2362.20,599.92,605.80,51.69,0000 0000 0000 0000 000000
2016-04-18 06:04:49,0.07,4.98,0.00,16.82,21.61,25.26,14.86,51.23,1012.22,2055.37,1948.29,2094.00,2361.88,599.59,605.69,51.74,0000 0000 0000 0000 000000
2016-04-18 06:09:50,0.03,4.98,0.00,16.76,21.59,25.26,14.88,51.29,1012.22,2055.39,1947.98,2093.91,2361.14,599.54,605.76,51.79,0000 0000 0000 0000 000000
2016-04-18 06:14:52,0.10,4.98,0.00,16.71,21.58,25.27,14.98,51.47,1012.22,2055.70,1947.44,2093.37,2361.00,600.08,606.45,51.84,0000 0000 0000 0000 000000
2016-04-18 06:19:53,0.03,4.99,0.00,16.69,21.57,25.25,14.97,51.45,1012.22,2055.90,1947.01,2093.02,2360.97,600.34,606.65,51.89,0000 0000 0000 0000 000000
2016-04-18 06:24:54,0.04,4.99,0.00,16.69,21.56,25.25,14.90,51.41,1012.22,2055.93,1946.70,2093.00,2360.37,600.11,606.51,51.94,0000 0000 0000 0000 000000
2016-04-18 06:29:55,0.04,4.99,0.00,16.67,21.55,25.26,14.92,51.48,1012.22,2055.96,1946.04,2092.82,2360.01,600.07,606.58,51.99,0000 0000 0000 0000 000000
2016-04-18 06:34:57,0.05,4.99,0.00,16.65,21.55,25.24,14.91,51.66,1012.22,2055.98,1945.78,2092.12,2359.83,599.72,606.04,52.04,0000 0000 0000 0000 000000
2016-04-18 06:39:58,0.04,5.00,0.00,16.61,21.55,25.24,14.90,51.62,1012.23,2055.95,1945.02,2091.94,2359.06,600.11,606.51,52.09,0000 0000 0000 0000 000000
2016-04-18 06:44:59,0.09,5.00,0.00,16.58,21.56,25.25,14.90,51.73,1012.22,2055.96,1944.32,2091.16,2358.43,600.07,606.64,52.14,0000 0000 0000 0000 000000
2016-04-18 06:50:00,0.03,5.00,0.00,16.56,21.57,25.27,14.95,51.83,1012.23,2055.96,1943.76,2090.89,2357.93,600.12,606.80,52.19,0000 0000 0000 0000 000000
2016-04-18 06:55:01,0.09,5.01,0.00,16.48,21.58,25.38,14.98,51.92,1012.24,2055.97,1943.01,2090.13,2357.13,600.17,606.95,52.24,0000 0000 0000 0000 000000
2016-04-18 07:00:03,0.04,5.01,0.00,16.47,21.59,25.55,14.99,51.95,1012.26,2055.93,1942.20,2089.92,2356.71,600.10,606.98,52.29,0000 0000 0000 0000 000000
2016-04-18 07:05:04,0.04,5.01,0.00,16.40,21.59,25.62,14.95,51.94,1012.29,2055.81,1941.73,2089.22,2356.03,599.96,607.02,52.34,0000 0000 0000 0000 000000
2016-04-18 07:10:05,0.09,5.02,0.00,16.35,21.61,25.74,15.01,51.98,1012.45,2055.58,1940.60,2088.47,2355.07,599.87,607.10,52.39,0000 0000 0000 0000 000000
2016-04-18 07:15:07,0.16,5.02,0.00,16.26,21.62,25.73,15.06,51.84,1012.59,2055.30,1939.03,2087.05,2353.42,600.25,607.77,52.45,0000 0000 0000 0000 000000
2016-04-18 07:20:08,0.22,5.03,0.00,16.23,21.61,25.61,15.06,52.07,1012.66,2055.33,1937.02,2085.29,2351.36,600.34,607.93,52.50,0000 0000 0000 0000 000000
2016-04-18 07:25:10,0.21,5.04,0.00,16.23,21.59,25.53,15.04,51.88,1012.69,2055.49,1935.38,2083.80,2349.62,600.14,607.84,52.55,0000 0000 0000 0000 000000
2016-04-18 07:30:11,0.15,5.05,0.00,16.18,21.58,25.45,14.99,51.81,1012.70,2055.67,1934.00,2082.71,2348.26,600.02,607.71,52.60,0000 0000 0000 0000 000000
2016-04-18 07:35:12,0.09,5.06,0.00,16.13,21.56,25.48,15.04,51.83,1012.71,2055.92,1933.06,2082.01,2347.37,600.28,608.19,52.65,0000 0000 0000 0000 000000
2016-04-18 07:40:14,0.09,5.06,0.00,16.10,21.54,25.55,15.02,51.63,1012.71,2055.98,1932.34,2081.37,2346.75,600.30,608.32,52.70,0000 0000 0000 0000 000000
2016-04-18 07:45:15,0.11,5.07,0.00,16.05,21.52,25.51,15.02,51.82,1012.71,2055.98,1931.31,2080.55,2345.68,600.29,608.29,52.75,0000 0000 0000 0000 000000
2016-04-18 07:50:16,0.12,5.08,0.00,16.08,21.50,25.49,15.03,51.85,1012.71,2055.99,1930.12,2079.59,2344.58,599.94,607.96,52.80,0000 0000 0000 0000 000000
2016-04-18 07:55:17,0.13,5.08,0.00,16.04,21.48,25.44,15.06,51.77,1012.71,2055.99,1928.81,2078.51,2343.38,600.10,608.23,52.85,0000 0000 0000 0000 000000
2016-04-18 08:00:18,0.14,5.09,0.00,16.00,21.46,25.41,15.02,51.73,1012.72,2055.99,1927.49,2077.42,2342.03,599.87,608.03,52.90,0000 0000 0000 0000 000000
2016-04-18 08:05:19,0.11,5.10,0.00,15.94,21.44,25.43,15.00,51.61,1012.74,2056.01,1926.24,2076.41,2340.96,600.00,608.27,52.95,0000 0000 0000 0000 000000
2016-04-18 08:10:21,0.06,5.10,0.00,15.94,21.42,25.46,15.05,51.65,1012.76,2056.02,1925.48,2076.00,2340.11,599.89,608.29,53.00,0000 0000 0000 0000 000000
2016-04-18 08:15:22,0.08,5.10,0.00,16.00,21.40,25.41,15.04,51.54,1012.87,2056.07,1924.82,2075.43,2339.73,599.86,608.08,53.05,0000 0000 0000 0000 000000
2016-04-18 08:20:23,0.12,5.11,0.00,15.97,21.38,25.39,15.03,51.67,1012.92,2056.17,1923.75,2074.68,2338.71,600.16,608.38,53.10,0000 0000 0000 0000 000000
2016-04-18 08:25:24,0.08,5.12,0.00,15.92,21.35,25.38,15.06,51.58,1013.10,2056.41,1922.89,2074.01,2337.96,600.05,608.57,53.15,0000 0000 0000 0000 000000
2016-04-18 08:30:26,0.17,5.12,0.00,15.89,21.33,25.39,15.08,51.68,1013.14,2056.85,1921.86,2073.22,2336.98,600.03,608.56,53.20,0000 0000 0000 0000 000000
2016-04-18 08:35:28,0.16,5.13,0.00,15.84,21.31,25.40,15.03,51.57,1013.19,2056.95,1920.50,2072.09,2335.66,599.92,608.70,53.25,0000 0000 0000 0000 000000
2016-04-18 08:40:29,0.12,5.14,0.00,15.92,21.29,25.37,15.03,51.49,1013.20,2056.97,1919.37,2071.11,2334.49,600.17,608.73,53.30,0000 0000 0000 0000 000000
2016-04-18 08:45:30,0.11,5.15,0.00,15.91,21.27,25.31,14.99,51.46,1013.20,2056.97,1918.23,2070.16,2333.40,599.63,608.29,53.36,0000 0000 0000 0000 000000
2016-04-18 08:50:31,0.10,5.15,0.00,15.85,21.25,25.32,15.01,51.56,1013.20,2056.98,1917.20,2069.42,2332.58,599.87,608.68,53.41,0000 0000 0000 0000 000000
2016-04-18 08:55:33,0.12,5.16,0.00,15.85,21.24,25.21,15.09,51.71,1013.20,2056.99,1915.99,2068.61,2331.53,600.04,608.73,53.46,0000 0000 0000 0000 000000
2016-04-18 09:00:35,0.13,5.16,0.00,15.84,21.22,25.18,15.01,51.58,1013.20,2056.99,1914.72,2067.52,2330.31,600.12,608.88,53.51,0000 0000 0000 0000 000000
2016-04-18 09:05:36,0.15,5.17,0.00,15.87,21.20,25.21,15.02,51.63,1013.20,2056.99,1913.34,2066.40,2328.86,600.17,608.89,53.56,0000 0000 0000 0000 000000
2016-04-18 09:10:38,0.15,5.18,0.00,15.89,21.19,25.24,15.04,51.59,1013.22,2057.00,1911.86,2065.18,2327.51,599.96,608.50,53.61,0000 0000 0000 0000 000000
2016-04-18 09:15:39,0.16,5.19,0.00,15.84,21.17,25.18,14.96,51.54,1013.30,2057.00,1910.35,2063.91,2326.09,599.58,608.43,53.66,0000 0000 0000 0000 000000
2016-04-18 09:20:40,0.15,5.19,0.00,15.82,21.16,25.10,15.07,51.62,1013.39,2057.02,1908.82,2062.78,2324.71,599.96,608.86,53.71,0000 0000 0000 0000 000000
2016-04-18 09:25:41,0.14,5.20,0.00,15.81,21.14,25.17,15.00,51.70,1013.41,2057.02,1907.48,2061.67,2323.46,599.88,608.90,53.76,0000 0000 0000 0000 000000
2016-04-18 09:30:43,0.16,5.21,0.00,15.85,21.13,25.15,15.10,51.73,1013.47,2057.08,1905.96,2060.57,2322.14,600.22,609.18,53.81,0000 0000 0000 0000 000000
2016-04-18 09:35:44,0.15,5.22,0.00,15.88,21.12,25.09,15.03,51.75,1013.61,2057.08,1904.48,2059.41,2320.76,600.00,608.84,53.86,0000 0000 0000 0000 000000
2016-04-18 09:40:45,0.15,5.23,0.00,15.84,21.12,25.08,15.01,51.84,1013.59,2057.15,1902.95,2058.26,2319.46,599.84,608.81,53.91,0000 0000 0000 0000 000000
2016-04-18 09:45:47,0.16,5.23,0.00,15.83,21.12,25.09,15.08,51.71,1013.64,2057.39,1901.58,2057.17,2318.19,600.51,609.47,53.96,0000 0000 0000 0000 000000
2016-04-18 09:50:48,0.11,5.24,0.00,15.82,21.12,24.94,15.00,51.74,1013.68,2057.38,1900.36,2056.14,2316.98,599.95,609.19,54.01,0000 0000 0000 0000 000000
2016-04-18 09:55:50,0.15,5.25,0.00,15.85,21.12,25.05,14.99,51.88,1013.69,2057.42,1899.01,2055.10,2315.77,599.84,608.86,54.06,0000 0000 0000 0000 000000
2016-04-18 10:00:51,0.16,5.26,0.00,15.85,21.12,25.04,14.98,51.91,1013.69,2057.40,1897.53,2053.94,2314.47,599.67,608.72,54.11,0000 0000 0000 0000 000000
2016-04-18 10:05:52,0.11,5.26,0.00,15.83,21.12,24.88,15.02,51.87,1013.69,2057.33,1896.19,2052.90,2313.14,599.79,608.96,54.16,0000 0000 0000 0000 000000
2016-04-18 10:10:53,0.12,5.27,0.00,15.81,21.12,24.90,15.00,51.78,1013.69,2057.20,1894.97,2051.84,2311.91,600.15,609.27,54.21,0000 0000 0000 0000 000000
2016-04-18 10:15:55,0.16,5.27,0.00,15.79,21.12,24.96,14.98,51.85,1013.69,2057.15,1893.58,2050.76,2310.67,599.62,608.75,54.27,0000 0000 0000 0000 000000
2016-04-18 10:20:56,0.14,5.28,0.00,15.84,21.12,25.02,15.10,51.85,1013.69,2057.22,1892.22,2049.68,2309.47,600.19,609.11,54.32,0000 0000 0000 0000 000000
2016-04-18 10:25:58,0.15,5.29,0.00,15.81,21.11,25.02,15.06,51.96,1013.69,2057.22,1890.71,2048.60,2308.22,599.69,608.75,54.37,0000 0000 0000 0000 000000
2016-04-18 10:30:59,0.15,5.30,0.00,15.81,21.09,25.05,15.06,51.89,1013.69,2057.20,1889.29,2047.40,2306.93,599.67,608.77,54.42,0000 0000 0000 0000 000000
2016-04-18 10:36:00,0.13,5.31,0.00,15.78,21.09,25.04,15.01,51.92,1013.70,2057.35,1887.88,2046.67,2305.66,600.34,609.43,54.47,0000 0000 0000 0000 000000
2016-04-18 10:41:02,0.15,5.31,0.00,15.80,21.07,25.01,15.04,51.90,1013.72,2057.30,1886.43,2045.60,2304.41,600.10,609.23,54.52,0000 0000 0000 0000 000000
2016-04-18 10:46:03,0.17,5.32,0.00,15.80,21.06,25.00,15.05,51.83,1013.77,2057.48,1884.94,2044.49,2303.14,600.03,609.28,54.57,0000 0000 0000 0000 000000
2016-04-18 10:51:05,0.11,5.33,0.00,15.76,21.04,24.99,15.02,51.74,1013.89,2057.41,1883.75,2043.51,2301.96,600.15,609.49,54.62,0000 0000 0000 0000 000000
2016-04-18 10:56:06,0.17,5.34,0.00,15.71,21.02,25.02,14.93,51.72,1014.04,2057.54,1882.21,2042.34,2300.69,599.66,609.18,54.67,0000 0000 0000 0000 000000
2016-04-18 11:01:07,0.17,5.34,0.00,15.69,21.00,24.93,15.00,51.64,1014.04,2057.79,1880.84,2041.34,2299.58,599.67,609.32,54.72,0000 0000 0000 0000 000000
2016-04-18 11:06:09,0.14,5.35,0.00,15.74,20.98,24.91,14.98,51.61,1013.96,2057.95,1879.58,2040.37,2298.42,600.11,609.53,54.77,0000 0000 0000 0000 000000
2016-04-18 11:11:10,0.13,5.36,0.00,15.71,20.96,24.82,14.93,51.66,1014.10,2057.98,1878.11,2039.36,2297.21,599.68,609.25,54.82,0000 0000 0000 0000 000000
2016-04-18 11:16:11,0.13,5.37,0.00,15.66,20.94,24.83,15.03,51.81,1014.13,2057.98,1876.85,2038.37,2296.06,600.13,609.88,54.87,0000 0000 0000 0000 000000
2016-04-18 11:21:12,0.15,5.37,0.00,15.64,20.92,24.79,15.06,51.71,1014.11,2057.99,1875.46,2037.32,2294.77,599.98,609.70,54.92,0000 0000 0000 0000 000000
2016-04-18 11:26:14,0.13,5.38,0.00,15.64,20.89,24.82,15.01,51.62,1014.16,2057.99,1874.04,2036.20,2293.56,599.67,609.47,54.97,0000 0000 0000 0000 000000
2016-04-18 11:31:15,0.14,5.39,0.00,15.65,20.88,24.81,15.06,51.75,1014.17,2057.99,1872.68,2035.16,2292.40,600.02,609.77,55.02,0000 0000 0000 0000 000000
2016-04-18 11:36:17,0.14,5.40,0.00,15.59,20.85,24.75,15.05,51.63,1014.17,2057.99,1871.22,2034.07,2291.16,600.20,610.01,55.07,0000 0000 0000 0000 000000
2016-04-18 11:41:18,0.15,5.40,0.00,15.55,20.83,24.77,15.03,51.69,1014.17,2058.02,1869.72,2033.05,2289.91,599.49,609.44,55.12,0000 0000 0000 0000 000000
2016-04-18 11:46:20,0.14,5.41,0.00,15.52,20.80,24.59,15.01,51.63,1014.16,2058.03,1868.35,2032.03,2288.69,599.88,609.85,55.18,0000 0000 0000 0000 000000
2016-04-18 11:51:21,0.09,5.42,0.00,15.54,20.78,24.71,14.98,51.65,1014.17,2058.05,1867.33,2031.11,2287.80,599.46,609.43,55.23,0000 0000 0000 0000 000000
2016-04-18 11:56:22,0.17,5.43,0.00,15.53,20.75,24.73,15.08,51.85,1014.17,2058.21,1866.38,2030.27,2286.65,600.04,609.85,55.28,0000 0000 0000 0000 000000
2016-04-18 12:01:23,0.13,5.43,0.00,15.48,20.73,24.66,14.99,51.82,1014.17,2058.30,1865.29,2029.37,2285.49,599.84,609.90,55.33,0000 0000 0000 0000 000000
2016-04-18 12:06:25,0.17,5.44,0.00,15.44,20.69,24.62,15.04,51.73,1014.18,2058.56,1864.00,2028.40,2284.40,599.98,610.17,55.38,0000 0000 0000 0000 000000
2016-04-18 12:11:26,0.17,5.45,0.00,15.42,20.67,24.61,14.99,51.58,1014.18,2058.90,1862.39,2027.38,2283.28,599.52,609.70,55.43,0000 0000 0000 0000 000000
2016-04-18 12:16:27,0.11,5.46,0.00,15.43,20.63,24.55,15.05,51.60,1014.21,2058.98,1861.43,2026.59,2282.32,600.40,610.53,55.48,0000 0000 0000 0000 000000
2016-04-18 12:21:28,0.10,5.46,0.00,15.38,20.60,24.65,15.07,51.81,1014.20,2058.99,1860.23,2025.83,2281.34,599.99,610.26,55.53,0000 0000 0000 0000 000000
2016-04-18 12:26:30,0.12,5.47,0.00,15.34,20.57,24.60,15.05,51.79,1014.19,2058.99,1858.98,2024.96,2280.37,600.15,610.62,55.58,0000 0000 0000 0000 000000
2016-04-18 12:31:31,0.14,5.48,0.00,15.32,20.53,24.50,15.10,51.76,1014.19,2059.00,1857.58,2024.08,2279.32,600.07,610.44,55.63,0000 0000 0000 0000 000000
2016-04-18 12:36:32,0.12,5.48,0.00,15.33,20.50,24.60,15.09,51.71,1014.20,2059.04,1856.50,2023.26,2278.45,600.19,610.43,55.68,0000 0000 0000 0000 000000
2016-04-18 12:41:33,0.11,5.49,0.00,15.29,20.47,24.60,15.13,51.78,1014.28,2059.10,1855.72,2022.51,2277.58,600.16,610.81,55.73,0000 0000 0000 0000 000000
2016-04-18 12:46:34,0.14,5.49,0.00,15.24,20.43,24.46,15.07,51.72,1014.49,2059.45,1854.62,2021.80,2276.68,599.58,610.39,55.78,0000 0000 0000 0000 000000
2016-04-18 12:51:36,0.12,5.50,0.00,15.22,20.40,24.50,15.09,51.63,1014.62,2059.84,1853.82,2021.03,2275.92,599.93,610.88,55.83,0000 0000 0000 0000 000000
2016-04-18 12:56:37,0.10,5.51,0.00,15.22,20.38,24.46,15.06,51.69,1014.62,2059.96,1853.00,2020.39,2275.07,599.60,610.46,55.88,0000 0000 0000 0000 000000